Time,TemperatureF,DewpointF,PressureIn,WindDirection,WindDirectionDegrees,WindSpeedMPH,WindSpeedGustMPH,Humidity,HourlyPrecipIn,Conditions,Clouds,dailyrainin,SoftwareType,DateUTC
2013-03-24 00:00:00,41.4,24.2,29.88,NE,44,1.0,9.0,50,0.00,,---,0.00,VWS V14.01,2013-03-24 04:00:00,
2013-03-24 00:05:00,41.3,24.1,29.87,NE,36,2.0,10.0,50,0.00,,---,0.00,VWS V14.01,2013-03-24 04:05:00,
2013-03-24 00:10:00,41.1,24.4,29.87,ENE,65,1.0,10.0,51,0.00,,---,0.00,VWS V14.01,2013-03-24 04:10:00,
2013-03-24 00:15:00,40.9,24.6,29.87,ENE,77,2.0,10.0,52,0.00,,---,0.00,VWS V14.01,2013-03-24 04:15:00,
2013-03-24 00:20:00,40.8,24.5,29.87,ENE,68,1.0,10.0,52,0.00,,---,0.00,VWS V14.01,2013-03-24 04:20:00,
2013-03-24 00:25:00,40.8,24.5,29.87,NNW,333,1.0,10.0,52,0.00,,---,0.00,VWS V14.01,2013-03-24 04:25:00,
2013-03-24 00:30:00,40.7,24.9,29.87,NNE,33,5.0,10.0,53,0.00,,---,0.00,VWS V14.01,2013-03-24 04:30:00,
2013-03-24 00:35:00,40.7,24.9,29.87,NNE,20,3.0,5.0,53,0.00,,---,0.00,VWS V14.01,2013-03-24 04:35:00,
2013-03-24 00:40:00,40.6,24.8,29.87,NNE,19,4.0,6.0,53,0.00,,---,0.00,VWS V14.01,2013-03-24 04:40:00,
2013-03-24 00:45:00,40.6,24.8,29.87,ENE,70,3.0,9.0,53,0.00,,---,0.00,VWS V14.01,2013-03-24 04:45:00,
2013-03-24 00:50:00,40.6,24.8,29.87,NE,47,3.0,9.0,53,0.00,,---,0.00,VWS V14.01,2013-03-24 04:50:00,
2013-03-24 00:55:00,40.4,25.1,29.87,NE,34,4.0,9.0,54,0.00,,---,0.00,VWS V14.01,2013-03-24 04:55:00,
2013-03-24 01:00:00,40.3,25.4,29.86,ENE,65,5.0,9.0,55,0.00,,---,0.00,VWS V14.01,2013-03-24 05:00:00,
2013-03-24 01:05:00,40.2,25.3,29.86,ENE,64,3.0,8.0,55,0.00,,---,0.00,VWS V14.01,2013-03-24 05:05:00,
2013-03-24 01:10:00,40.1,25.2,29.86,NE,49,5.0,9.0,55,0.00,,---,0.00,VWS V14.01,2013-03-24 05:10:00,
2013-03-24 01:15:00,39.9,25.1,29.86,NE,37,2.0,9.0,55,0.00,,---,0.00,VWS V14.01,2013-03-24 05:15:00,
2013-03-24 01:20:00,39.9,25.5,29.86,NNW,343,2.0,9.0,56,0.00,,---,0.00,VWS V14.01,2013-03-24 05:20:00,
2013-03-24 01:25:00,39.7,25.3,29.86,ESE,105,1.0,9.0,56,0.00,,---,0.00,VWS V14.01,2013-03-24 05:25:00,
2013-03-24 01:30:00,39.7,25.3,29.86,ENE,74,2.0,13.0,56,0.00,,---,0.00,VWS V14.01,2013-03-24 05:30:00,
2013-03-24 01:35:00,39.7,25.3,29.87,NE,49,2.0,9.0,56,0.00,,---,0.00,VWS V14.01,2013-03-24 05:35:00,
2013-03-24 01:40:00,39.7,25.7,29.85,ENE,71,5.0,9.0,57,0.00,,---,0.00,VWS V14.01,2013-03-24 05:40:00,
2013-03-24 01:45:00,39.5,25.5,29.85,ENE,60,4.0,9.0,57,0.00,,---,0.00,VWS V14.01,2013-03-24 05:45:00,
2013-03-24 01:50:00,39.4,25.5,29.86,NE,56,3.0,9.0,57,0.00,,---,0.00,VWS V14.01,2013-03-24 05:50:00,
2013-03-24 01:55:00,39.4,25.9,29.86,NE,53,2.0,9.0,58,0.00,,---,0.00,VWS V14.01,2013-03-24 05:55:00,
2013-03-24 02:00:00,39.3,25.8,29.85,NE,34,1.0,9.0,58,0.00,,---,0.00,VWS V14.01,2013-03-24 06:00:00,
2013-03-24 02:05:00,39.1,26.0,29.85,NNE,33,1.0,7.0,59,0.00,,---,0.00,VWS V14.01,2013-03-24 06:05:00,
2013-03-24 02:10:00,39.1,26.0,29.85,ENE,74,4.0,9.0,59,0.00,,---,0.00,VWS V14.01,2013-03-24 06:10:00,
2013-03-24 02:15:00,39.1,26.0,29.86,NE,56,5.0,9.0,59,0.00,,---,0.00,VWS V14.01,2013-03-24 06:15:00,
2013-03-24 02:20:00,39.0,25.9,29.86,NNE,33,3.0,9.0,59,0.00,,---,0.00,VWS V14.01,2013-03-24 06:20:00,
2013-03-24 02:25:00,39.0,26.3,29.86,SE,129,2.0,9.0,60,0.00,,---,0.00,VWS V14.01,2013-03-24 06:25:00,
2013-03-24 02:30:00,38.9,26.2,29.86,NE,40,3.0,9.0,60,0.00,,---,0.00,VWS V14.01,2013-03-24 06:30:00,
2013-03-24 02:35:00,38.9,26.2,29.86,NE,40,1.0,9.0,60,0.00,,---,0.00,VWS V14.01,2013-03-24 06:35:00,
2013-03-24 02:40:00,38.8,26.1,29.86,ENE,58,3.0,9.0,60,0.00,,---,0.00,VWS V14.01,2013-03-24 06:40:00,
2013-03-24 02:45:00,38.7,26.4,29.86,ENE,58,7.0,10.0,61,0.00,,---,0.00,VWS V14.01,2013-03-24 06:45:00,
2013-03-24 02:50:00,38.6,26.3,29.86,NE,46,4.0,10.0,61,0.00,,---,0.00,VWS V14.01,2013-03-24 06:50:00,
2013-03-24 02:55:00,38.6,26.7,29.87,ENE,75,4.0,10.0,62,0.00,,---,0.00,VWS V14.01,2013-03-24 06:55:00,
2013-03-24 03:00:00,38.5,26.6,29.86,East,86,0.0,10.0,62,0.00,,---,0.00,VWS V14.01,2013-03-24 07:00:00,
2013-03-24 03:05:00,38.4,26.5,29.85,East,90,0.0,9.0,62,0.00,,---,0.00,VWS V14.01,2013-03-24 07:05:00,
2013-03-24 03:10:00,38.4,26.9,29.86,ENE,70,4.0,9.0,63,0.00,,---,0.00,VWS V14.01,2013-03-24 07:10:00,
2013-03-24 03:15:00,38.3,26.8,29.85,NE,51,0.0,9.0,63,0.00,,---,0.00,VWS V14.01,2013-03-24 07:15:00,
2013-03-24 03:20:00,38.3,26.8,29.85,NNW,342,4.0,9.0,63,0.00,,---,0.00,VWS V14.01,2013-03-24 07:20:00,
2013-03-24 03:25:00,38.2,26.7,29.86,NE,54,3.0,9.0,63,0.00,,---,0.00,VWS V14.01,2013-03-24 07:25:00,
2013-03-24 03:30:00,38.2,26.7,29.86,NE,34,2.0,9.0,63,0.00,,---,0.00,VWS V14.01,2013-03-24 07:30:00,
2013-03-24 03:35:00,38.1,27.0,29.86,ENE,57,2.0,5.0,64,0.00,,---,0.00,VWS V14.01,2013-03-24 07:35:00,
2013-03-24 03:40:00,38.1,27.0,29.86,ENE,62,3.0,5.0,64,0.00,,---,0.00,VWS V14.01,2013-03-24 07:40:00,
2013-03-24 03:45:00,38.0,26.9,29.85,ESE,110,1.0,10.0,64,0.00,,---,0.00,VWS V14.01,2013-03-24 07:45:00,
2013-03-24 03:50:00,38.0,26.9,29.85,NE,36,1.0,10.0,64,0.00,,---,0.00,VWS V14.01,2013-03-24 07:50:00,
2013-03-24 03:55:00,38.0,26.9,29.85,ENE,77,2.0,10.0,64,0.00,,---,0.00,VWS V14.01,2013-03-24 07:55:00,
2013-03-24 04:00:00,37.9,26.8,29.85,NE,38,1.0,10.0,64,0.00,,---,0.00,VWS V14.01,2013-03-24 08:00:00,
2013-03-24 04:05:00,37.9,26.8,29.84,North,1,2.0,9.0,64,0.00,,---,0.00,VWS V14.01,2013-03-24 08:05:00,
2013-03-24 04:10:00,37.8,27.1,29.84,ENE,65,3.0,9.0,65,0.00,,---,0.00,VWS V14.01,2013-03-24 08:10:00,
2013-03-24 04:15:00,37.7,27.0,29.83,ESE,110,2.0,9.0,65,0.00,,---,0.00,VWS V14.01,2013-03-24 08:15:00,
2013-03-24 04:20:00,37.6,26.9,29.83,NE,56,3.0,11.0,65,0.00,,---,0.00,VWS V14.01,2013-03-24 08:20:00,
2013-03-24 04:25:00,37.5,26.8,29.82,NE,47,3.0,11.0,65,0.00,,---,0.00,VWS V14.01,2013-03-24 08:25:00,
2013-03-24 04:30:00,37.4,26.7,29.82,NE,39,2.0,11.0,65,0.00,,---,0.00,VWS V14.01,2013-03-24 08:30:00,
2013-03-24 04:35:00,37.3,27.0,29.81,NE,43,3.0,8.0,66,0.00,,---,0.00,VWS V14.01,2013-03-24 08:35:00,
2013-03-24 04:40:00,37.2,26.9,29.81,NNE,23,4.0,9.0,66,0.00,,---,0.00,VWS V14.01,2013-03-24 08:40:00,
2013-03-24 04:45:00,37.1,26.8,29.80,NE,43,4.0,9.0,66,0.00,,---,0.00,VWS V14.01,2013-03-24 08:45:00,
2013-03-24 04:50:00,37.0,27.1,29.80,NE,51,5.0,12.0,67,0.00,,---,0.00,VWS V14.01,2013-03-24 08:50:00,
2013-03-24 04:55:00,37.0,27.1,29.80,ENE,65,6.0,12.0,67,0.00,,---,0.00,VWS V14.01,2013-03-24 08:55:00,
2013-03-24 05:00:00,36.9,27.0,29.79,SE,130,7.0,12.0,67,0.00,,---,0.00,VWS V14.01,2013-03-24 09:00:00,
2013-03-24 05:05:00,36.8,26.9,29.79,NNW,344,2.0,12.0,67,0.00,,---,0.00,VWS V14.01,2013-03-24 09:05:00,
2013-03-24 05:10:00,36.7,27.1,29.79,NNE,25,3.0,12.0,68,0.00,,---,0.00,VWS V14.01,2013-03-24 09:10:00,
2013-03-24 05:15:00,36.7,27.1,29.79,NE,46,5.0,12.0,68,0.00,,---,0.00,VWS V14.01,2013-03-24 09:15:00,
2013-03-24 05:20:00,36.7,27.1,29.80,ENE,58,4.0,12.0,68,0.00,,---,0.00,VWS V14.01,2013-03-24 09:20:00,
2013-03-24 05:25:00,36.6,27.0,29.80,ENE,58,3.0,12.0,68,0.00,,---,0.00,VWS V14.01,2013-03-24 09:25:00,
2013-03-24 05:30:00,36.6,27.0,29.79,NE,47,4.0,12.0,68,0.00,,---,0.00,VWS V14.01,2013-03-24 09:30:00,
2013-03-24 05:35:00,36.6,27.4,29.78,ENE,65,4.0,6.0,69,0.00,,---,0.00,VWS V14.01,2013-03-24 09:35:00,
2013-03-24 05:40:00,36.5,27.0,29.78,East,101,4.0,10.0,68,0.00,,---,0.00,VWS V14.01,2013-03-24 09:40:00,
2013-03-24 05:45:00,36.5,27.3,29.78,NE,46,3.0,10.0,69,0.00,,---,0.00,VWS V14.01,2013-03-24 09:45:00,
2013-03-24 05:50:00,36.5,27.3,29.77,ENE,60,7.0,10.0,69,0.00,,---,0.00,VWS V14.01,2013-03-24 09:50:00,
2013-03-24 05:55:00,36.5,27.3,29.77,East,79,5.0,10.0,69,0.00,,---,0.00,VWS V14.01,2013-03-24 09:55:00,
2013-03-24 06:00:00,36.5,27.3,29.77,NE,48,1.0,10.0,69,0.00,,---,0.00,VWS V14.01,2013-03-24 10:00:00,
2013-03-24 06:05:00,36.5,27.3,29.77,North,6,2.0,13.0,69,0.00,,---,0.00,VWS V14.01,2013-03-24 10:05:00,
2013-03-24 06:10:00,36.5,27.3,29.76,ENE,57,10.0,13.0,69,0.00,,---,0.00,VWS V14.01,2013-03-24 10:10:00,
2013-03-24 06:15:00,36.4,27.2,29.76,NW,314,3.0,13.0,69,0.00,,---,0.00,VWS V14.01,2013-03-24 10:15:00,
2013-03-24 06:20:00,36.4,27.2,29.76,ESE,113,1.0,13.0,69,0.00,,---,0.00,VWS V14.01,2013-03-24 10:20:00,
2013-03-24 06:25:00,36.4,27.2,29.75,NE,51,3.0,13.0,69,0.00,,---,0.00,VWS V14.01,2013-03-24 10:25:00,
2013-03-24 06:30:00,36.4,27.2,29.74,ENE,71,4.0,14.0,69,0.00,,---,0.00,VWS V14.01,2013-03-24 10:30:00,
2013-03-24 06:35:00,36.3,27.1,29.74,NE,51,4.0,11.0,69,0.00,,---,0.00,VWS V14.01,2013-03-24 10:35:00,
2013-03-24 06:40:00,36.3,27.1,29.74,East,79,8.0,11.0,69,0.00,,---,0.00,VWS V14.01,2013-03-24 10:40:00,
2013-03-24 06:45:00,36.3,27.1,29.75,NNE,33,4.0,11.0,69,0.00,,---,0.00,VWS V14.01,2013-03-24 10:45:00,
2013-03-24 06:50:00,36.3,27.1,29.74,ESE,116,7.0,11.0,69,0.00,,---,0.00,VWS V14.01,2013-03-24 10:50:00,
2013-03-24 06:55:00,36.3,26.8,29.73,ESE,106,5.0,14.0,68,0.00,,---,0.00,VWS V14.01,2013-03-24 10:55:00,
2013-03-24 07:00:00,36.3,27.1,29.73,ENE,70,2.0,14.0,69,0.00,,---,0.00,VWS V14.01,2013-03-24 11:00:00,
2013-03-24 07:05:00,36.3,27.1,29.73,NNW,335,4.0,5.0,69,0.00,,---,0.00,VWS V14.01,2013-03-24 11:05:00,
2013-03-24 07:10:00,36.3,26.8,29.73,NNE,27,7.0,11.0,68,0.00,,---,0.00,VWS V14.01,2013-03-24 11:10:00,
2013-03-24 07:15:00,36.3,26.8,29.73,NNW,332,3.0,11.0,68,0.00,,---,0.00,VWS V14.01,2013-03-24 11:15:00,
2013-03-24 07:20:00,36.3,26.8,29.73,East,81,5.0,11.0,68,0.00,,---,0.00,VWS V14.01,2013-03-24 11:20:00,
2013-03-24 07:25:00,36.2,26.7,29.72,NE,34,4.0,11.0,68,0.00,,---,0.00,VWS V14.01,2013-03-24 11:25:00,
2013-03-24 07:30:00,36.3,26.8,29.73,NNE,29,4.0,11.0,68,0.00,,---,0.00,VWS V14.01,2013-03-24 11:30:00,
2013-03-24 07:35:00,36.2,27.0,29.74,NNE,22,3.0,7.0,69,0.00,,---,0.00,VWS V14.01,2013-03-24 11:35:00,
2013-03-24 07:40:00,36.2,27.0,29.75,North,353,2.0,8.0,69,0.00,,---,0.00,VWS V14.01,2013-03-24 11:40:00,
2013-03-24 07:45:00,36.1,26.9,29.74,ENE,59,1.0,10.0,69,0.00,,---,0.00,VWS V14.01,2013-03-24 11:45:00,
2013-03-24 07:50:00,36.0,26.8,29.74,ESE,102,2.0,10.0,69,0.00,,---,0.00,VWS V14.01,2013-03-24 11:50:00,
2013-03-24 07:55:00,36.0,26.8,29.73,ENE,67,1.0,10.0,69,0.00,,---,0.00,VWS V14.01,2013-03-24 11:55:00,
2013-03-24 08:00:00,36.0,26.8,29.73,NE,46,7.0,10.0,69,0.00,,---,0.00,VWS V14.01,2013-03-24 12:00:00,
2013-03-24 08:05:00,36.0,26.8,29.73,ENE,57,3.0,13.0,69,0.00,,---,0.00,VWS V14.01,2013-03-24 12:05:00,
2013-03-24 08:10:00,36.0,26.8,29.72,East,86,2.0,13.0,69,0.00,,---,0.00,VWS V14.01,2013-03-24 12:10:00,
2013-03-24 08:15:00,36.0,26.8,29.72,NE,39,8.0,14.0,69,0.00,,---,0.00,VWS V14.01,2013-03-24 12:15:00,
2013-03-24 08:20:00,36.0,26.8,29.72,ENE,63,2.0,14.0,69,0.00,,---,0.00,VWS V14.01,2013-03-24 12:20:00,
2013-03-24 08:25:00,36.1,26.9,29.72,ENE,63,3.0,14.0,69,0.00,,---,0.00,VWS V14.01,2013-03-24 12:25:00,
2013-03-24 08:30:00,36.1,26.9,29.72,SE,145,2.0,14.0,69,0.00,,---,0.00,VWS V14.01,2013-03-24 12:30:00,
2013-03-24 08:35:00,36.2,27.0,29.72,East,89,3.0,11.0,69,0.00,,---,0.00,VWS V14.01,2013-03-24 12:35:00,
2013-03-24 08:40:00,36.2,26.7,29.72,SE,136,3.0,11.0,68,0.00,,---,0.00,VWS V14.01,2013-03-24 12:40:00,
2013-03-24 08:45:00,36.3,26.8,29.73,ENE,67,5.0,11.0,68,0.00,,---,0.00,VWS V14.01,2013-03-24 12:45:00,
2013-03-24 08:50:00,36.4,26.9,29.73,ENE,70,10.0,11.0,68,0.00,,---,0.00,VWS V14.01,2013-03-24 12:50:00,
2013-03-24 08:55:00,36.4,26.9,29.73,SSE,148,2.0,11.0,68,0.00,,---,0.00,VWS V14.01,2013-03-24 12:55:00,
2013-03-24 09:00:00,36.4,26.9,29.73,NE,49,2.0,11.0,68,0.00,,---,0.00,VWS V14.01,2013-03-24 13:00:00,
2013-03-24 09:05:00,36.4,26.9,29.73,ENE,60,1.0,8.0,68,0.00,,---,0.00,VWS V14.01,2013-03-24 13:05:00,
2013-03-24 09:10:00,36.3,26.8,29.73,NE,55,4.0,10.0,68,0.00,,---,0.00,VWS V14.01,2013-03-24 13:10:00,
2013-03-24 09:15:00,36.4,26.9,29.73,NE,56,1.0,10.0,68,0.00,,---,0.00,VWS V14.01,2013-03-24 13:15:00,
2013-03-24 09:20:00,36.2,27.0,29.72,East,91,7.0,10.0,69,0.00,,---,0.00,VWS V14.01,2013-03-24 13:20:00,
2013-03-24 09:25:00,36.0,27.2,29.72,ENE,58,5.0,10.0,70,0.00,,---,0.00,VWS V14.01,2013-03-24 13:25:00,
2013-03-24 09:30:00,35.7,27.9,29.71,NE,49,2.0,11.0,73,0.00,,---,0.00,VWS V14.01,2013-03-24 13:30:00,
2013-03-24 09:35:00,35.1,28.3,29.71,North,355,1.0,8.0,76,0.00,,---,0.00,VWS V14.01,2013-03-24 13:35:00,
2013-03-24 09:40:00,34.9,28.8,29.70,NNE,22,3.0,8.0,78,0.00,,---,0.00,VWS V14.01,2013-03-24 13:40:00,
2013-03-24 09:45:00,34.6,29.1,29.70,North,357,5.0,8.0,80,0.00,,---,0.00,VWS V14.01,2013-03-24 13:45:00,
2013-03-24 09:50:00,34.4,29.2,29.69,NE,52,2.0,8.0,81,0.00,,---,0.00,VWS V14.01,2013-03-24 13:50:00,
2013-03-24 09:55:00,34.4,29.5,29.69,NE,53,3.0,8.0,82,0.00,,---,0.00,VWS V14.01,2013-03-24 13:55:00,
2013-03-24 10:00:00,34.6,29.1,29.69,NNW,345,3.0,9.0,80,0.00,,---,0.00,VWS V14.01,2013-03-24 14:00:00,
2013-03-24 10:05:00,35.0,29.2,29.68,NNE,18,4.0,9.0,79,0.00,,---,0.00,VWS V14.01,2013-03-24 14:05:00,
2013-03-24 10:10:00,35.2,28.4,29.68,East,101,1.0,10.0,76,0.00,,---,0.00,VWS V14.01,2013-03-24 14:10:00,
2013-03-24 10:15:00,35.4,28.0,29.69,East,85,5.0,14.0,74,0.00,,---,0.00,VWS V14.01,2013-03-24 14:15:00,
2013-03-24 10:20:00,35.6,27.8,29.68,ESE,105,3.0,14.0,73,0.00,,---,0.00,VWS V14.01,2013-03-24 14:20:00,
2013-03-24 10:25:00,35.8,28.3,29.68,ENE,78,5.0,14.0,74,0.00,,---,0.00,VWS V14.01,2013-03-24 14:25:00,
2013-03-24 10:30:00,35.8,28.0,29.68,East,79,6.0,14.0,73,0.00,,---,0.00,VWS V14.01,2013-03-24 14:30:00,
2013-03-24 10:35:00,35.4,28.3,29.68,ENE,71,9.0,12.0,75,0.00,,---,0.00,VWS V14.01,2013-03-24 14:35:00,
2013-03-24 10:40:00,35.1,28.6,29.69,NE,42,2.0,12.0,77,0.00,,---,0.00,VWS V14.01,2013-03-24 14:40:00,
2013-03-24 10:45:00,34.8,28.6,29.69,ENE,67,1.0,12.0,78,0.00,,---,0.00,VWS V14.01,2013-03-24 14:45:00,
2013-03-24 10:50:00,34.5,29.0,29.68,ENE,68,0.0,12.0,80,0.00,,---,0.00,VWS V14.01,2013-03-24 14:50:00,
2013-03-24 10:55:00,34.3,29.4,29.68,NE,48,2.0,12.0,82,0.00,,---,0.00,VWS V14.01,2013-03-24 14:55:00,
2013-03-24 11:00:00,34.0,29.4,29.67,NE,56,1.0,12.0,83,0.00,,---,0.00,VWS V14.01,2013-03-24 15:00:00,
2013-03-24 11:05:00,33.7,29.4,29.66,ENE,67,2.0,8.0,84,0.00,,---,0.00,VWS V14.01,2013-03-24 15:05:00,
2013-03-24 11:10:00,33.5,29.8,29.66,NE,34,4.0,14.0,86,0.00,,---,0.00,VWS V14.01,2013-03-24 15:10:00,
2013-03-24 11:15:00,33.3,29.9,29.65,ESE,102,2.0,14.0,87,0.00,,---,0.00,VWS V14.01,2013-03-24 15:15:00,
2013-03-24 11:20:00,33.1,30.2,29.65,ENE,64,7.0,14.0,89,0.00,,---,0.00,VWS V14.01,2013-03-24 15:20:00,
2013-03-24 11:25:00,32.8,30.2,29.65,ENE,72,8.0,14.0,90,0.00,,---,0.00,VWS V14.01,2013-03-24 15:25:00,
2013-03-24 11:30:00,32.5,30.2,29.64,NE,56,6.0,14.0,91,0.00,,---,0.00,VWS V14.01,2013-03-24 15:30:00,
2013-03-24 11:35:00,32.4,30.3,29.63,East,84,11.0,11.0,92,0.00,,---,0.00,VWS V14.01,2013-03-24 15:35:00,
2013-03-24 11:40:00,32.3,30.5,29.64,NE,43,2.0,11.0,93,0.00,,---,0.00,VWS V14.01,2013-03-24 15:40:00,
2013-03-24 11:45:00,32.3,30.5,29.64,NE,49,2.0,11.0,93,0.00,,---,0.00,VWS V14.01,2013-03-24 15:45:00,
2013-03-24 11:50:00,32.2,30.7,29.65,NE,34,2.0,11.0,94,0.00,,---,0.00,VWS V14.01,2013-03-24 15:50:00,
2013-03-24 11:55:00,32.3,30.8,29.65,NE,39,3.0,11.0,94,0.00,,---,0.00,VWS V14.01,2013-03-24 15:55:00,
2013-03-24 12:00:00,32.3,30.8,29.64,East,91,2.0,11.0,94,0.00,,---,0.00,VWS V14.01,2013-03-24 16:00:00,
2013-03-24 12:05:00,32.4,30.9,29.62,East,96,5.0,8.0,94,0.00,,---,0.00,VWS V14.01,2013-03-24 16:05:00,
2013-03-24 12:10:00,32.5,31.2,29.62,ENE,65,7.0,8.0,95,0.00,,---,0.00,VWS V14.01,2013-03-24 16:10:00,
2013-03-24 12:15:00,32.6,31.1,29.62,NE,35,8.0,10.0,94,0.00,,---,0.00,VWS V14.01,2013-03-24 16:15:00,
2013-03-24 12:20:00,32.6,31.1,29.62,South,174,2.0,11.0,94,0.00,,---,0.00,VWS V14.01,2013-03-24 16:20:00,
2013-03-24 12:25:00,32.6,31.1,29.62,NNW,333,3.0,12.0,94,0.00,,---,0.00,VWS V14.01,2013-03-24 16:25:00,
2013-03-24 12:30:00,32.6,31.1,29.62,ENE,77,3.0,12.0,94,0.00,,---,0.00,VWS V14.01,2013-03-24 16:30:00,
2013-03-24 12:35:00,32.7,31.2,29.62,NE,55,1.0,8.0,94,0.00,,---,0.00,VWS V14.01,2013-03-24 16:35:00,
2013-03-24 12:40:00,32.8,31.3,29.62,North,357,4.0,8.0,94,0.00,,---,0.00,VWS V14.01,2013-03-24 16:40:00,
2013-03-24 12:45:00,32.8,31.3,29.62,NE,44,0.0,8.0,94,0.00,,---,0.00,VWS V14.01,2013-03-24 16:45:00,
2013-03-24 12:50:00,33.0,31.5,29.62,NNE,18,2.0,8.0,94,0.00,,---,0.00,VWS V14.01,2013-03-24 16:50:00,
2013-03-24 12:55:00,33.0,31.5,29.61,NE,49,1.0,9.0,94,0.00,,---,0.00,VWS V14.01,2013-03-24 16:55:00,
2013-03-24 13:00:00,33.1,31.6,29.60,NNE,26,5.0,9.0,94,0.00,,---,0.00,VWS V14.01,2013-03-24 17:00:00,
2013-03-24 13:05:00,33.2,31.7,29.59,NE,54,6.0,7.0,94,0.00,,---,0.00,VWS V14.01,2013-03-24 17:05:00,
2013-03-24 13:10:00,33.4,31.9,29.59,ENE,77,4.0,11.0,94,0.00,,---,0.00,VWS V14.01,2013-03-24 17:10:00,
2013-03-24 13:15:00,33.5,31.7,29.59,ENE,59,4.0,11.0,93,0.00,,---,0.00,VWS V14.01,2013-03-24 17:15:00,
2013-03-24 13:20:00,33.6,31.8,29.59,ENE,59,4.0,11.0,93,0.00,,---,0.00,VWS V14.01,2013-03-24 17:20:00,
2013-03-24 13:25:00,33.7,31.9,29.59,NE,46,4.0,12.0,93,0.00,,---,0.00,VWS V14.01,2013-03-24 17:25:00,
2013-03-24 13:30:00,33.8,32.0,29.59,ENE,58,4.0,13.0,93,0.00,,---,0.00,VWS V14.01,2013-03-24 17:30:00,
2013-03-24 13:35:00,33.8,32.0,29.59,NNE,29,4.0,8.0,93,0.00,,---,0.00,VWS V14.01,2013-03-24 17:35:00,
2013-03-24 13:40:00,33.7,31.6,29.58,NNE,23,2.0,11.0,92,0.00,,---,0.00,VWS V14.01,2013-03-24 17:40:00,
2013-03-24 13:45:00,33.8,32.0,29.59,NW,315,1.0,14.0,93,0.00,,---,0.00,VWS V14.01,2013-03-24 17:45:00,
2013-03-24 13:50:00,33.8,32.0,29.58,NE,38,2.0,14.0,93,0.00,,---,0.00,VWS V14.01,2013-03-24 17:50:00,
2013-03-24 13:55:00,33.9,32.1,29.58,NE,51,4.0,14.0,93,0.00,,---,0.00,VWS V14.01,2013-03-24 17:55:00,
2013-03-24 14:00:00,33.9,32.1,29.58,ESE,103,2.0,14.0,93,0.00,,---,0.00,VWS V14.01,2013-03-24 18:00:00,
2013-03-24 14:05:00,34.0,32.2,29.58,ESE,106,2.0,10.0,93,0.00,,---,0.00,VWS V14.01,2013-03-24 18:05:00,
2013-03-24 14:10:00,34.1,32.6,29.57,North,349,1.0,10.0,94,0.00,,---,0.00,VWS V14.01,2013-03-24 18:10:00,
2013-03-24 14:15:00,34.1,32.6,29.56,ENE,61,8.0,10.0,94,0.00,,---,0.00,VWS V14.01,2013-03-24 18:15:00,
2013-03-24 14:20:00,34.1,32.6,29.55,ENE,67,2.0,10.0,94,0.00,,---,0.00,VWS V14.01,2013-03-24 18:20:00,
2013-03-24 14:25:00,34.3,32.8,29.54,SE,134,3.0,14.0,94,0.00,,---,0.00,VWS V14.01,2013-03-24 18:25:00,
2013-03-24 14:30:00,34.7,33.4,29.52,ENE,63,2.0,14.0,95,0.01,,---,0.01,VWS V14.01,2013-03-24 18:30:00,
2013-03-24 14:35:00,35.0,33.7,29.49,NE,44,8.0,17.0,95,0.01,,---,0.01,VWS V14.01,2013-03-24 18:35:00,
2013-03-24 14:40:00,35.3,34.0,29.49,NE,44,5.0,17.0,95,0.02,,---,0.02,VWS V14.01,2013-03-24 18:40:00,
2013-03-24 14:45:00,35.3,34.0,29.48,NNW,345,9.0,17.0,95,0.03,,---,0.03,VWS V14.01,2013-03-24 18:45:00,
2013-03-24 14:50:00,35.0,33.5,29.48,NE,50,4.0,18.0,94,0.03,,---,0.03,VWS V14.01,2013-03-24 18:50:00,
2013-03-24 14:55:00,34.9,33.3,29.47,ESE,114,3.0,18.0,94,0.04,,---,0.04,VWS V14.01,2013-03-24 18:55:00,
2013-03-24 15:00:00,34.9,33.3,29.48,NNE,29,5.0,18.0,94,0.04,,---,0.04,VWS V14.01,2013-03-24 19:00:00,
2013-03-24 15:05:00,34.8,33.2,29.47,East,87,3.0,11.0,94,0.04,,---,0.04,VWS V14.01,2013-03-24 19:05:00,
2013-03-24 15:10:00,34.7,33.2,29.48,NNW,330,3.0,13.0,94,0.05,,---,0.05,VWS V14.01,2013-03-24 19:10:00,
2013-03-24 15:15:00,34.8,33.2,29.48,SE,129,3.0,13.0,94,0.05,,---,0.05,VWS V14.01,2013-03-24 19:15:00,
2013-03-24 15:20:00,34.8,33.2,29.47,SE,126,1.0,13.0,94,0.05,,---,0.05,VWS V14.01,2013-03-24 19:20:00,
2013-03-24 15:25:00,34.9,33.3,29.47,NNW,328,2.0,15.0,94,0.05,,---,0.05,VWS V14.01,2013-03-24 19:25:00,
2013-03-24 15:30:00,35.0,33.2,29.46,ENE,57,9.0,15.0,93,0.06,,---,0.06,VWS V14.01,2013-03-24 19:30:00,
2013-03-24 15:35:00,35.1,33.3,29.46,East,84,6.0,13.0,93,0.05,,---,0.06,VWS V14.01,2013-03-24 19:35:00,
2013-03-24 15:40:00,35.2,33.4,29.48,WNW,298,1.0,13.0,93,0.05,,---,0.06,VWS V14.01,2013-03-24 19:40:00,
2013-03-24 15:45:00,35.3,33.5,29.50,NNW,331,2.0,13.0,93,0.05,,---,0.06,VWS V14.01,2013-03-24 19:45:00,
2013-03-24 15:50:00,35.3,33.2,29.50,ENE,77,5.0,13.0,92,0.05,,---,0.06,VWS V14.01,2013-03-24 19:50:00,
2013-03-24 15:55:00,35.3,33.2,29.50,East,87,4.0,13.0,92,0.05,,---,0.06,VWS V14.01,2013-03-24 19:55:00,
2013-03-24 16:00:00,35.3,33.2,29.50,NNE,23,10.0,10.0,92,0.05,,---,0.06,VWS V14.01,2013-03-24 20:00:00,
2013-03-24 16:05:00,35.3,33.2,29.48,ESE,103,9.0,13.0,92,0.03,,---,0.07,VWS V14.01,2013-03-24 20:05:00,
2013-03-24 16:10:00,35.4,33.3,29.48,ENE,60,0.0,13.0,92,0.03,,---,0.07,VWS V14.01,2013-03-24 20:10:00,
2013-03-24 16:15:00,35.5,33.4,29.49,SSE,160,1.0,13.0,92,0.03,,---,0.07,VWS V14.01,2013-03-24 20:15:00,
2013-03-24 16:20:00,35.5,33.4,29.49,ENE,67,2.0,13.0,92,0.03,,---,0.07,VWS V14.01,2013-03-24 20:20:00,
2013-03-24 16:25:00,35.4,33.3,29.48,NE,41,8.0,13.0,92,0.03,,---,0.07,VWS V14.01,2013-03-24 20:25:00,
2013-03-24 16:30:00,35.4,33.3,29.48,SE,133,1.0,3.0,92,0.03,,---,0.07,VWS V14.01,2013-03-24 20:30:00,
2013-03-24 16:35:00,35.4,33.3,29.48,East,88,3.0,12.0,92,0.01,,---,0.07,VWS V14.01,2013-03-24 20:35:00,
2013-03-24 16:40:00,35.4,33.3,29.47,NE,44,7.0,12.0,92,0.01,,---,0.07,VWS V14.01,2013-03-24 20:40:00,
2013-03-24 16:45:00,35.4,33.3,29.47,ENE,65,2.0,12.0,92,0.01,,---,0.07,VWS V14.01,2013-03-24 20:45:00,
2013-03-24 16:50:00,35.3,33.2,29.46,NNE,15,2.0,13.0,92,0.01,,---,0.07,VWS V14.01,2013-03-24 20:50:00,
2013-03-24 16:55:00,35.3,33.2,29.45,NE,55,4.0,13.0,92,0.01,,---,0.07,VWS V14.01,2013-03-24 20:55:00,
2013-03-24 17:00:00,35.2,33.1,29.46,ENE,65,4.0,13.0,92,0.01,,---,0.07,VWS V14.01,2013-03-24 21:00:00,
2013-03-24 17:05:00,35.2,33.1,29.46,ESE,123,3.0,10.0,92,0.01,,---,0.08,VWS V14.01,2013-03-24 21:05:00,
2013-03-24 17:10:00,35.1,33.0,29.45,ENE,63,3.0,13.0,92,0.01,,---,0.08,VWS V14.01,2013-03-24 21:10:00,
2013-03-24 17:15:00,35.0,32.9,29.44,East,94,4.0,13.0,92,0.01,,---,0.08,VWS V14.01,2013-03-24 21:15:00,
2013-03-24 17:20:00,35.0,32.9,29.44,NE,49,6.0,14.0,92,0.01,,---,0.08,VWS V14.01,2013-03-24 21:20:00,
2013-03-24 17:25:00,34.9,32.8,29.44,ENE,59,5.0,14.0,92,0.01,,---,0.08,VWS V14.01,2013-03-24 21:25:00,
2013-03-24 17:30:00,34.9,32.8,29.44,NE,56,8.0,14.0,92,0.01,,---,0.08,VWS V14.01,2013-03-24 21:30:00,
2013-03-24 17:35:00,34.9,32.8,29.44,NNE,26,3.0,11.0,92,0.01,,---,0.08,VWS V14.01,2013-03-24 21:35:00,
2013-03-24 17:40:00,34.8,32.7,29.43,NNE,27,3.0,11.0,92,0.01,,---,0.08,VWS V14.01,2013-03-24 21:40:00,
2013-03-24 17:45:00,34.8,33.0,29.43,ENE,58,6.0,11.0,93,0.01,,---,0.08,VWS V14.01,2013-03-24 21:45:00,
2013-03-24 17:50:00,34.8,33.0,29.43,East,79,4.0,11.0,93,0.01,,---,0.08,VWS V14.01,2013-03-24 21:50:00,
2013-03-24 17:55:00,34.7,32.9,29.43,NE,34,7.0,12.0,93,0.01,,---,0.08,VWS V14.01,2013-03-24 21:55:00,
2013-03-24 18:00:00,34.6,32.8,29.44,ENE,74,2.0,12.0,93,0.02,,---,0.09,VWS V14.01,2013-03-24 22:00:00,
2013-03-24 18:05:00,34.5,33.0,29.44,NE,42,4.0,8.0,94,0.04,,---,0.11,VWS V14.01,2013-03-24 22:05:00,
2013-03-24 18:10:00,34.4,32.9,29.44,ENE,68,3.0,9.0,94,0.05,,---,0.12,VWS V14.01,2013-03-24 22:10:00,
2013-03-24 18:15:00,34.3,32.8,29.44,NE,47,4.0,9.0,94,0.05,,---,0.12,VWS V14.01,2013-03-24 22:15:00,
2013-03-24 18:20:00,34.2,32.7,29.43,East,80,2.0,9.0,94,0.05,,---,0.12,VWS V14.01,2013-03-24 22:20:00,
2013-03-24 18:25:00,34.1,32.6,29.42,ENE,72,3.0,9.0,94,0.05,,---,0.12,VWS V14.01,2013-03-24 22:25:00,
2013-03-24 18:30:00,33.9,32.4,29.41,West,269,6.0,9.0,94,0.05,,---,0.12,VWS V14.01,2013-03-24 22:30:00,
2013-03-24 18:35:00,33.7,32.4,29.41,East,99,1.0,11.0,95,0.04,,---,0.12,VWS V14.01,2013-03-24 22:35:00,
2013-03-24 18:40:00,33.6,32.3,29.40,NNE,23,5.0,11.0,95,0.04,,---,0.12,VWS V14.01,2013-03-24 22:40:00,
2013-03-24 18:45:00,33.5,32.2,29.39,NE,36,5.0,11.0,95,0.05,,---,0.13,VWS V14.01,2013-03-24 22:45:00,
2013-03-24 18:50:00,33.4,32.1,29.40,ENE,58,3.0,11.0,95,0.06,,---,0.14,VWS V14.01,2013-03-24 22:50:00,
2013-03-24 18:55:00,33.3,32.0,29.40,NNE,27,3.0,12.0,95,0.07,,---,0.15,VWS V14.01,2013-03-24 22:55:00,
2013-03-24 19:00:00,33.3,32.0,29.42,ENE,70,2.0,12.0,95,0.07,,---,0.15,VWS V14.01,2013-03-24 23:00:00,
2013-03-24 19:05:00,33.3,32.3,29.42,East,88,1.0,6.0,96,0.07,,---,0.16,VWS V14.01,2013-03-24 23:05:00,
2013-03-24 19:10:00,33.3,32.3,29.42,NE,56,5.0,6.0,96,0.07,,---,0.16,VWS V14.01,2013-03-24 23:10:00,
2013-03-24 19:15:00,33.2,32.2,29.42,NE,53,2.0,9.0,96,0.07,,---,0.16,VWS V14.01,2013-03-24 23:15:00,
2013-03-24 19:20:00,33.2,32.2,29.42,East,89,5.0,9.0,96,0.07,,---,0.16,VWS V14.01,2013-03-24 23:20:00,
2013-03-24 19:25:00,33.3,32.3,29.43,North,357,1.0,9.0,96,0.08,,---,0.17,VWS V14.01,2013-03-24 23:25:00,
2013-03-24 19:30:00,33.3,32.3,29.44,SE,142,2.0,9.0,96,0.08,,---,0.17,VWS V14.01,2013-03-24 23:30:00,
2013-03-24 19:35:00,33.4,32.4,29.44,ESE,120,2.0,4.0,96,0.05,,---,0.17,VWS V14.01,2013-03-24 23:35:00,
2013-03-24 19:40:00,33.4,32.4,29.44,ESE,110,0.0,4.0,96,0.05,,---,0.17,VWS V14.01,2013-03-24 23:40:00,
2013-03-24 19:45:00,33.4,32.4,29.44,SSE,153,0.0,4.0,96,0.05,,---,0.17,VWS V14.01,2013-03-24 23:45:00,
2013-03-24 19:50:00,33.3,32.3,29.44,SE,143,0.0,4.0,96,0.05,,---,0.17,VWS V14.01,2013-03-24 23:50:00,
2013-03-24 19:55:00,33.3,32.3,29.44,East,101,0.0,5.0,96,0.05,,---,0.17,VWS V14.01,2013-03-24 23:55:00,
2013-03-24 20:00:00,33.2,32.2,29.43,NNW,332,1.0,5.0,96,0.05,,---,0.17,VWS V14.01,2013-03-25 00:00:00,
2013-03-24 20:05:00,33.1,32.1,29.43,NW,312,0.0,1.0,96,0.02,,---,0.17,VWS V14.01,2013-03-25 00:05:00,
2013-03-24 20:10:00,32.9,31.9,29.43,NW,323,0.0,1.0,96,0.02,,---,0.17,VWS V14.01,2013-03-25 00:10:00,
2013-03-24 20:15:00,32.9,31.9,29.42,NE,35,1.0,2.0,96,0.02,,---,0.17,VWS V14.01,2013-03-25 00:15:00,
2013-03-24 20:20:00,32.9,31.9,29.42,ENE,65,0.0,3.0,96,0.02,,---,0.17,VWS V14.01,2013-03-25 00:20:00,
2013-03-24 20:25:00,32.9,31.9,29.42,ENE,72,2.0,3.0,96,0.02,,---,0.17,VWS V14.01,2013-03-25 00:25:00,
2013-03-24 20:30:00,32.9,32.1,29.41,East,93,1.0,3.0,97,0.02,,---,0.17,VWS V14.01,2013-03-25 00:30:00,
2013-03-24 20:35:00,32.9,32.1,29.41,ESE,102,2.0,5.0,97,0.00,,---,0.17,VWS V14.01,2013-03-25 00:35:00,
2013-03-24 20:40:00,32.9,32.1,29.41,East,79,1.0,5.0,97,0.00,,---,0.17,VWS V14.01,2013-03-25 00:40:00,
2013-03-24 20:45:00,32.9,32.1,29.41,ENE,76,1.0,5.0,97,0.00,,---,0.17,VWS V14.01,2013-03-25 00:45:00,
2013-03-24 20:50:00,32.8,32.0,29.41,ENE,65,2.0,5.0,97,0.00,,---,0.17,VWS V14.01,2013-03-25 00:50:00,
2013-03-24 20:55:00,32.8,32.0,29.42,ESE,117,0.0,5.0,97,0.00,,---,0.17,VWS V14.01,2013-03-25 00:55:00,
2013-03-24 21:00:00,32.8,32.0,29.41,SSE,157,0.0,5.0,97,0.00,,---,0.17,VWS V14.01,2013-03-25 01:00:00,
2013-03-24 21:05:00,32.8,32.0,29.41,SE,135,0.0,4.0,97,0.00,,---,0.17,VWS V14.01,2013-03-25 01:05:00,
2013-03-24 21:10:00,32.8,32.0,29.41,East,86,0.0,4.0,97,0.00,,---,0.17,VWS V14.01,2013-03-25 01:10:00,
2013-03-24 21:15:00,32.9,32.1,29.42,East,86,0.0,4.0,97,0.00,,---,0.17,VWS V14.01,2013-03-25 01:15:00,
2013-03-24 21:20:00,32.9,32.1,29.42,NE,56,2.0,4.0,97,0.00,,---,0.17,VWS V14.01,2013-03-25 01:20:00,
2013-03-24 21:25:00,32.9,32.1,29.42,SSE,153,0.0,4.0,97,0.00,,---,0.17,VWS V14.01,2013-03-25 01:25:00,
2013-03-24 21:30:00,32.9,32.1,29.42,ESE,103,0.0,4.0,97,0.00,,---,0.17,VWS V14.01,2013-03-25 01:30:00,
2013-03-24 21:35:00,32.9,32.1,29.42,East,97,1.0,2.0,97,0.00,,---,0.17,VWS V14.01,2013-03-25 01:35:00,
2013-03-24 21:40:00,32.9,32.1,29.43,East,98,0.0,2.0,97,0.00,,---,0.17,VWS V14.01,2013-03-25 01:40:00,
2013-03-24 21:45:00,32.9,32.1,29.43,SE,127,0.0,2.0,97,0.00,,---,0.17,VWS V14.01,2013-03-25 01:45:00,
2013-03-24 21:50:00,32.8,32.0,29.43,SE,127,0.0,2.0,97,0.00,,---,0.17,VWS V14.01,2013-03-25 01:50:00,
2013-03-24 21:55:00,32.8,32.0,29.42,ESE,105,0.0,2.0,97,0.00,,---,0.17,VWS V14.01,2013-03-25 01:55:00,
2013-03-24 22:00:00,32.8,32.0,29.42,NE,42,0.0,2.0,97,0.00,,---,0.17,VWS V14.01,2013-03-25 02:00:00,
2013-03-24 22:05:00,32.8,32.0,29.42,NE,41,0.0,0.0,97,0.00,,---,0.17,VWS V14.01,2013-03-25 02:05:00,
2013-03-24 22:10:00,32.7,31.9,29.43,NE,43,0.0,0.0,97,0.00,,---,0.17,VWS V14.01,2013-03-25 02:10:00,
2013-03-24 22:15:00,32.8,32.0,29.43,East,86,0.0,1.0,97,0.00,,---,0.17,VWS V14.01,2013-03-25 02:15:00,
2013-03-24 22:20:00,32.8,32.0,29.43,SSE,150,0.0,1.0,97,0.00,,---,0.17,VWS V14.01,2013-03-25 02:20:00,
2013-03-24 22:25:00,32.8,32.0,29.43,SSE,150,0.0,1.0,97,0.00,,---,0.17,VWS V14.01,2013-03-25 02:25:00,
2013-03-24 22:30:00,32.8,32.0,29.43,SSE,150,0.0,1.0,97,0.00,,---,0.17,VWS V14.01,2013-03-25 02:30:00,
2013-03-24 22:35:00,32.8,32.3,29.43,SSE,150,0.0,0.0,98,0.00,,---,0.17,VWS V14.01,2013-03-25 02:35:00,
2013-03-24 22:40:00,32.8,32.3,29.43,SSE,151,0.0,0.0,98,0.00,,---,0.17,VWS V14.01,2013-03-25 02:40:00,
2013-03-24 22:45:00,32.8,32.3,29.43,SSE,150,0.0,0.0,98,0.00,,---,0.17,VWS V14.01,2013-03-25 02:45:00,
2013-03-24 22:50:00,32.8,32.3,29.43,SSE,150,0.0,0.0,98,0.01,,---,0.18,VWS V14.01,2013-03-25 02:50:00,
2013-03-24 22:55:00,32.7,32.2,29.42,ENE,78,0.0,0.0,98,0.01,,---,0.18,VWS V14.01,2013-03-25 02:55:00,
2013-03-24 23:00:00,32.8,32.3,29.42,ENE,78,0.0,0.0,98,0.01,,---,0.18,VWS V14.01,2013-03-25 03:00:00,
2013-03-24 23:05:00,32.8,32.3,29.42,East,79,0.0,0.0,98,0.01,,---,0.18,VWS V14.01,2013-03-25 03:05:00,
2013-03-24 23:10:00,32.8,32.3,29.42,East,80,0.0,0.0,98,0.01,,---,0.18,VWS V14.01,2013-03-25 03:10:00,
2013-03-24 23:15:00,32.9,32.4,29.42,East,80,0.0,0.0,98,0.01,,---,0.18,VWS V14.01,2013-03-25 03:15:00,
2013-03-24 23:20:00,32.9,32.4,29.42,ENE,71,0.0,0.0,98,0.01,,---,0.18,VWS V14.01,2013-03-25 03:20:00,
2013-03-24 23:25:00,32.9,32.4,29.43,ENE,71,0.0,0.0,98,0.01,,---,0.18,VWS V14.01,2013-03-25 03:25:00,
2013-03-24 23:30:00,32.8,32.3,29.43,ENE,71,0.0,0.0,98,0.01,,---,0.18,VWS V14.01,2013-03-25 03:30:00,
2013-03-24 23:35:00,32.9,32.4,29.43,ENE,71,0.0,0.0,98,0.01,,---,0.18,VWS V14.01,2013-03-25 03:35:00,
2013-03-24 23:40:00,32.9,32.4,29.43,ENE,70,0.0,0.0,98,0.01,,---,0.18,VWS V14.01,2013-03-25 03:40:00,
2013-03-24 23:45:00,32.9,32.4,29.43,ENE,71,0.0,0.0,98,0.01,,---,0.18,VWS V14.01,2013-03-25 03:45:00,
2013-03-24 23:50:00,32.9,32.4,29.43,ENE,70,0.0,0.0,98,0.01,,---,0.18,VWS V14.01,2013-03-25 03:50:00,
2013-03-24 23:55:00,32.8,32.3,29.42,ENE,71,0.0,0.0,98,0.01,,---,0.18,VWS V14.01,2013-03-25 03:55:00,